| time (UTC) | temp F | wind direction | speed knots | gust knots | rain 1hr in | rain 24hr in | rain mn in | humidity % | barometer mb |
| 20260906123013 | 71 | 115 | 0.0 | 0.9 | 0.00 | 0.00 | 0.00 | 92 | 1017.5 |
| 20260906122511 | 71 | 96 | 0.0 | 1.7 | 0.00 | 0.00 | 0.00 | 92 | 1017.5 |
| 20260906122009 | 70 | 102 | 0.0 | 1.7 | 0.00 | 0.00 | 0.00 | 92 | 1017.3 |
| 20260906121008 | 70 | 100 | 0.0 | 0.9 | 0.00 | 0.00 | 0.00 | 92 | 1017.2 |
| 20260906120510 | 70 | 86 | 0.0 | 0.0 | 0.00 | 0.00 | 0.00 | 92 | 1017.1 |
| 20260906120007 | 70 | 86 | 0.0 | 1.7 | 0.00 | 0.00 | 0.00 | 92 | 1016.9 |
| 20260906115506 | 70 | 92 | 0.0 | 0.9 | 0.00 | 0.00 | 0.00 | 92 | 1016.9 |
| 20260906115005 | 70 | 96 | 0.0 | 0.0 | 0.00 | 0.00 | 0.00 | 92 | 1016.8 |
| 20260906114504 | 70 | 95 | 0.0 | 0.0 | 0.00 | 0.00 | 0.00 | 92 | 1016.7 |
| 20260906114007 | 70 | 91 | 0.0 | 0.9 | 0.00 | 0.00 | 0.00 | 92 | 1016.6 |
| 20260906113503 | 70 | 91 | 0.0 | 0.9 | 0.00 | 0.00 | 0.00 | 92 | 1016.6 |
| 20260906113003 | 70 | 89 | 0.0 | 0.9 | 0.00 | 0.00 | 0.00 | 92 | 1016.5 |
| 20260906112503 | 70 | 96 | 0.0 | 0.9 | 0.00 | 0.00 | 0.00 | 92 | 1016.3 |
| 20260906112002 | 70 | 103 | 0.0 | 0.9 | 0.00 | 0.00 | 0.00 | 92 | 1016.2 |
| 20260906111002 | 70 | 94 | 0.0 | 0.0 | 0.00 | 0.00 | 0.00 | 92 | 1016.3 |
| 20260906110501 | 70 | 94 | 0.0 | 0.0 | 0.00 | 0.00 | 0.00 | 92 | 1016.3 |
| 20260906110002 | 70 | 94 | 0.0 | 0.0 | 0.00 | 0.00 | 0.00 | 92 | 1016.3 |
| 20260906105603 | 70 | 94 | 0.0 | 0.0 | 0.00 | 0.00 | 0.00 | 91 | 1016.2 |
| 20260906105101 | 70 | 94 | 0.0 | 0.0 | 0.00 | 0.00 | 0.00 | 91 | 1016.1 |
| 20260906104621 | 70 | 94 | 0.0 | 0.0 | 0.00 | 0.00 | 0.00 | 91 | 1016.1 |
| 20260906104059 | 70 | 94 | 0.0 | 0.0 | 0.00 | 0.00 | 0.00 | 91 | 1016.0 |
| 20260906103558 | 70 | 94 | 0.0 | 0.9 | 0.00 | 0.00 | 0.00 | 91 | 1016.0 |
| 20260906103059 | 70 | 92 | 0.0 | 0.0 | 0.00 | 0.00 | 0.00 | 91 | 1015.9 |
| 20260906102558 | 70 | 92 | 0.0 | 2.6 | 0.00 | 0.00 | 0.00 | 91 | 1015.8 |
| 20260906102058 | 70 | 92 | 0.0 | 2.6 | 0.00 | 0.00 | 0.00 | 91 | 1015.7 |
| 20260906101100 | 70 | 93 | 0.0 | 0.0 | 0.00 | 0.00 | 0.00 | 91 | 1015.7 |
| 20260906100600 | 70 | 93 | 0.0 | 1.7 | 0.00 | 0.00 | 0.00 | 91 | 1015.5 |
| 20260906100059 | 70 | 93 | 0.0 | 1.7 | 0.00 | 0.00 | 0.00 | 91 | 1015.5 |
| 20260906095559 | 70 | 106 | 0.0 | 0.9 | 0.00 | 0.00 | 0.00 | 91 | 1015.6 |
| 20260906095059 | 70 | 106 | 0.0 | 0.9 | 0.00 | 0.00 | 0.00 | 91 | 1015.5 |
| 20260906094639 | 70 | 105 | 0.0 | 1.7 | 0.00 | 0.00 | 0.00 | 91 | 1015.6 |
| 20260906094058 | 70 | 105 | 0.0 | 1.7 | 0.00 | 0.00 | 0.00 | 91 | 1015.5 |
| 20260906093558 | 70 | 80 | 0.0 | 0.9 | 0.00 | 0.00 | 0.00 | 91 | 1015.6 |
| 20260906093106 | 70 | 79 | 0.0 | 0.9 | 0.00 | 0.00 | 0.00 | 91 | 1015.6 |
| 20260906092558 | 70 | 122 | 0.0 | 0.0 | 0.00 | 0.00 | 0.00 | 91 | 1015.5 |
| 20260906092058 | 70 | 122 | 0.0 | 0.0 | 0.00 | 0.00 | 0.00 | 91 | 1015.5 |
| 20260906091057 | 70 | 261 | 0.0 | 0.0 | 0.00 | 0.00 | 0.00 | 92 | 1015.6 |
| 20260906090556 | 70 | 261 | 0.0 | 0.0 | 0.00 | 0.00 | 0.00 | 92 | 1015.5 |
| 20260906090057 | 70 | 261 | 0.0 | 0.0 | 0.00 | 0.00 | 0.00 | 92 | 1015.5 |
| 20260906085556 | 70 | 261 | 0.0 | 0.0 | 0.00 | 0.00 | 0.00 | 92 | 1015.6 |
| 20260906085056 | 70 | 261 | 0.0 | 0.0 | 0.00 | 0.00 | 0.00 | 92 | 1015.7 |
| 20260906084556 | 70 | 261 | 0.0 | 0.0 | 0.00 | 0.00 | 0.00 | 92 | 1015.7 |
| 20260906084058 | 70 | 261 | 0.0 | 0.0 | 0.00 | 0.00 | 0.00 | 92 | 1015.7 |
| 20260906083555 | 70 | 261 | 0.0 | 0.0 | 0.00 | 0.00 | 0.00 | 92 | 1015.7 |
| 20260906083055 | 69 | 261 | 0.0 | 0.0 | 0.00 | 0.00 | 0.00 | 92 | 1015.7 |
| 20260906082554 | 69 | 261 | 0.0 | 0.9 | 0.00 | 0.00 | 0.00 | 92 | 1015.7 |
| 20260906082054 | 69 | 261 | 0.0 | 0.9 | 0.00 | 0.00 | 0.00 | 92 | 1015.7 |
| 20260906081055 | 69 | 99 | 0.0 | 0.0 | 0.00 | 0.00 | 0.00 | 92 | 1015.8 |
| 20260906080555 | 69 | 100 | 0.0 | 0.0 | 0.00 | 0.00 | 0.00 | 92 | 1015.7 |
| 20260906080056 | 69 | 100 | 0.0 | 0.0 | 0.00 | 0.00 | 0.00 | 92 | 1015.8 |
| 20260906075554 | 69 | 100 | 0.0 | 0.0 | 0.00 | 0.00 | 0.00 | 92 | 1015.7 |
| 20260906075057 | 69 | 100 | 0.0 | 0.0 | 0.00 | 0.00 | 0.00 | 92 | 1015.7 |
| 20260906074556 | 69 | 100 | 0.0 | 0.0 | 0.00 | 0.00 | 0.00 | 92 | 1015.7 |
| 20260906074055 | 69 | 100 | 0.0 | 0.0 | 0.00 | 0.00 | 0.00 | 92 | 1015.8 |
| 20260906073554 | 69 | 100 | 0.0 | 0.0 | 0.00 | 0.00 | 0.00 | 92 | 1015.8 |
| 20260906073054 | 69 | 99 | 0.0 | 0.0 | 0.00 | 0.00 | 0.00 | 92 | 1016.0 |
| 20260906072554 | 69 | 100 | 0.0 | 0.0 | 0.00 | 0.00 | 0.00 | 92 | 1016.0 |
| 20260906072054 | 69 | 100 | 0.0 | 0.0 | 0.00 | 0.00 | 0.00 | 92 | 1016.0 |
| 20260906071057 | 69 | 100 | 0.0 | 0.0 | 0.00 | 0.00 | 0.00 | 91 | 1016.0 |
| 20260906070554 | 69 | 100 | 0.0 | 0.0 | 0.00 | 0.00 | 0.00 | 91 | 1015.9 |
| 20260906070053 | 69 | 100 | 0.0 | 0.0 | 0.00 | 0.00 | 0.00 | 91 | 1016.0 |
| 20260906065553 | 69 | 100 | 0.0 | 0.0 | 0.00 | 0.00 | 0.00 | 91 | 1015.8 |
| 20260906065052 | 69 | 99 | 0.0 | 0.0 | 0.00 | 0.00 | 0.00 | 91 | 1015.7 |
| 20260906064552 | 69 | 100 | 0.0 | 0.0 | 0.00 | 0.00 | 0.00 | 91 | 1015.7 |
| 20260906064052 | 69 | 99 | 0.0 | 0.0 | 0.00 | 0.00 | 0.00 | 91 | 1015.8 |
| 20260906063551 | 69 | 99 | 0.0 | 0.0 | 0.00 | 0.00 | 0.00 | 91 | 1015.9 |
| 20260906063052 | 69 | 99 | 0.0 | 0.0 | 0.00 | 0.00 | 0.00 | 91 | 1016.0 |
| 20260906062551 | 69 | 100 | 0.0 | 0.0 | 0.00 | 0.00 | 0.00 | 91 | 1016.0 |
| 20260906062055 | 69 | 99 | 0.0 | 0.0 | 0.00 | 0.00 | 0.00 | 91 | 1016.1 |
| 20260906061049 | 70 | 100 | 0.0 | 0.0 | 0.00 | 0.00 | 0.00 | 91 | 1016.2 |
| 20260906060552 | 70 | 100 | 0.0 | 0.0 | 0.00 | 0.00 | 0.00 | 91 | 1016.2 |
| 20260906060049 | 70 | 99 | 0.0 | 0.0 | 0.00 | 0.00 | 0.00 | 91 | 1016.2 |
| 20260906055551 | 70 | 100 | 0.0 | 0.0 | 0.00 | 0.00 | 0.00 | 91 | 1016.2 |
| 20260906055048 | 70 | 99 | 0.0 | 0.0 | 0.00 | 0.00 | 0.00 | 91 | 1016.2 |
| 20260906054547 | 70 | 99 | 0.0 | 0.0 | 0.00 | 0.00 | 0.00 | 91 | 1016.2 |
| 20260906054049 | 70 | 100 | 0.0 | 0.0 | 0.00 | 0.00 | 0.00 | 91 | 1016.1 |
| 20260906053546 | 70 | 100 | 0.0 | 0.0 | 0.00 | 0.00 | 0.00 | 91 | 1016.0 |
| 20260906053045 | 70 | 100 | 0.0 | 0.0 | 0.00 | 0.00 | 0.00 | 91 | 1016.1 |
| 20260906052547 | 70 | 99 | 0.0 | 0.0 | 0.00 | 0.00 | 0.00 | 91 | 1016.1 |
| 20260906052045 | 70 | 99 | 0.0 | 0.0 | 0.00 | 0.00 | 0.00 | 91 | 1016.1 |
| 20260906051047 | 70 | 100 | 0.0 | 0.0 | 0.00 | 0.00 | 0.00 | 91 | 1015.9 |
| 20260906050545 | 70 | 100 | 0.0 | 0.0 | 0.00 | 0.00 | 0.00 | 91 | 1015.8 |
| 20260906050042 | 70 | 100 | 0.0 | 0.0 | 0.00 | 0.00 | 0.00 | 91 | 1015.8 |
| 20260906045543 | 70 | 99 | 0.0 | 0.0 | 0.00 | 0.00 | 0.00 | 91 | 1015.7 |
| 20260906045040 | 71 | 99 | 0.0 | 0.9 | 0.00 | 0.00 | 0.00 | 91 | 1015.5 |
| 20260906044543 | 71 | 99 | 0.0 | 1.7 | 0.00 | 0.00 | 0.00 | 90 | 1015.5 |
| 20260906044039 | 71 | 91 | 0.0 | 2.6 | 0.00 | 0.00 | 0.00 | 90 | 1015.3 |
| 20260906043537 | 71 | 83 | 0.0 | 2.6 | 0.00 | 0.00 | 0.00 | 90 | 1015.2 |
| 20260906043043 | 71 | 96 | 0.0 | 1.7 | 0.00 | 0.00 | 0.00 | 90 | 1015.1 |
| 20260906042537 | 71 | 83 | 0.0 | 1.7 | 0.00 | 0.00 | 0.00 | 90 | 1015.0 |
| 20260906042036 | 71 | 109 | 0.0 | 2.6 | 0.00 | 0.00 | 0.00 | 90 | 1015.0 |
| 20260906041035 | 72 | 89 | 0.0 | 1.7 | 0.00 | 0.00 | 0.00 | 90 | 1014.8 |
| 20260906040537 | 72 | 101 | 0.0 | 3.5 | 0.00 | 0.00 | 0.00 | 89 | 1014.8 |
| 20260906040036 | 72 | 93 | 0.0 | 3.5 | 0.00 | 0.00 | 0.00 | 89 | 1014.8 |
| 20260906035537 | 72 | 106 | 0.0 | 4.3 | 0.00 | 0.00 | 0.00 | 89 | 1014.8 |
| 20260906035032 | 72 | 88 | 0.0 | 4.3 | 0.00 | 0.00 | 0.00 | 89 | 1014.8 |
| 20260906034531 | 72 | 110 | 0.0 | 4.3 | 0.00 | 0.00 | 0.00 | 89 | 1014.8 |
| 20260906034032 | 72 | 84 | 0.9 | 6.1 | 0.00 | 0.00 | 0.00 | 89 | 1014.7 |
| 20260906033530 | 72 | 109 | 1.7 | 7.0 | 0.00 | 0.00 | 0.00 | 89 | 1014.6 |
| 20260906033030 | 72 | 93 | 2.6 | 7.0 | 0.00 | 0.00 | 0.00 | 89 | 1014.6 |
| 20260906032529 | 72 | 100 | 1.7 | 5.2 | 0.00 | 0.00 | 0.00 | 89 | 1014.5 |
| 20260906032029 | 72 | 346 | 0.9 | 6.1 | 0.00 | 0.00 | 0.00 | 90 | 1014.5 |
| 20260906031029 | 73 | 86 | 0.0 | 3.5 | 0.00 | 0.00 | 0.00 | 90 | 1014.4 |
| 20260906030529 | 72 | 94 | 0.9 | 1.7 | 0.00 | 0.00 | 0.00 | 90 | 1014.4 |
| 20260906030029 | 72 | 136 | 0.0 | 0.0 | 0.00 | 0.00 | 0.00 | 90 | 1014.3 |
| 20260906025532 | 72 | 136 | 0.0 | 0.0 | 0.00 | 0.00 | 0.00 | 90 | 1014.3 |
| 20260906025029 | 72 | 136 | 0.0 | 0.0 | 0.00 | 0.00 | 0.00 | 89 | 1014.3 |
| 20260906024528 | 73 | 136 | 0.0 | 0.0 | 0.00 | 0.00 | 0.00 | 89 | 1014.4 |
| 20260906024029 | 73 | 136 | 0.0 | 0.0 | 0.00 | 0.00 | 0.00 | 89 | 1014.4 |
| 20260906023526 | 73 | 136 | 0.0 | 0.0 | 0.00 | 0.00 | 0.00 | 89 | 1014.3 |
| 20260906023024 | 73 | 136 | 0.0 | 0.0 | 0.00 | 0.00 | 0.00 | 89 | 1014.2 |
| 20260906022524 | 73 | 136 | 0.0 | 0.0 | 0.00 | 0.00 | 0.00 | 89 | 1014.2 |
| 20260906022024 | 74 | 136 | 0.0 | 0.0 | 0.00 | 0.00 | 0.00 | 89 | 1014.1 |
| 20260906021022 | 74 | 136 | 0.0 | 0.0 | 0.00 | 0.00 | 0.00 | 88 | 1014.2 |
| 20260906020521 | 74 | 136 | 0.0 | 0.9 | 0.00 | 0.00 | 0.00 | 88 | 1014.1 |
| 20260906020030 | 74 | 136 | 0.0 | 0.9 | 0.00 | 0.00 | 0.00 | 88 | 1014.1 |
| 20260906015524 | 74 | 110 | 0.0 | 0.0 | 0.00 | 0.00 | 0.00 | 87 | 1014.2 |
| 20260906015019 | 75 | 110 | 0.0 | 0.0 | 0.00 | 0.00 | 0.00 | 87 | 1014.1 |
| 20260906014518 | 75 | 110 | 0.0 | 0.0 | 0.00 | 0.00 | 0.00 | 87 | 1014.0 |
| 20260906014019 | 75 | 110 | 0.0 | 0.0 | 0.00 | 0.00 | 0.00 | 86 | 1013.8 |
| 20260906013515 | 76 | 110 | 0.0 | 0.0 | 0.00 | 0.00 | 0.00 | 86 | 1013.6 |
| 20260906013015 | 76 | 99 | 0.0 | 0.0 | 0.00 | 0.00 | 0.00 | 85 | 1013.7 |
| 20260906012514 | 76 | 99 | 0.0 | 0.0 | 0.00 | 0.00 | 0.00 | 85 | 1013.6 |
| 20260906012013 | 76 | 99 | 0.0 | 0.0 | 0.00 | 0.00 | 0.00 | 85 | 1013.5 |
| 20260906011017 | 77 | 130 | 0.0 | 0.0 | 0.00 | 0.00 | 0.00 | 84 | 1013.5 |
| 20260906010513 | 77 | 130 | 0.0 | 0.9 | 0.00 | 0.00 | 0.00 | 84 | 1013.5 |
| 20260906010013 | 78 | 130 | 0.0 | 0.9 | 0.00 | 0.00 | 0.00 | 83 | 1013.4 |
| 20260906005512 | 78 | 61 | 0.0 | 0.9 | 0.00 | 0.00 | 0.00 | 83 | 1013.3 |
| 20260906005013 | 78 | 13 | 0.0 | 1.7 | 0.00 | 0.00 | 0.00 | 83 | 1013.3 |
| 20260906004513 | 79 | 12 | 0.0 | 2.6 | 0.00 | 0.00 | 0.00 | 83 | 1013.2 |
| 20260906004012 | 79 | 71 | 0.0 | 2.6 | 0.00 | 0.00 | 0.00 | 82 | 1013.3 |
| 20260906003512 | 80 | 79 | 0.0 | 1.7 | 0.00 | 0.00 | 0.00 | 82 | 1013.2 |
| 20260906003021 | 80 | 41 | 0.0 | 0.0 | 0.00 | 0.00 | 0.00 | 81 | 1013.2 |
| 20260906002511 | 80 | 41 | 0.0 | 0.0 | 0.00 | 0.00 | 0.00 | 80 | 1013.1 |
| 20260906002013 | 81 | 41 | 0.0 | 0.0 | 0.00 | 0.00 | 0.00 | 80 | 1013.1 |
| 20260906001012 | 82 | 148 | 0.0 | 2.6 | 0.00 | 0.00 | 0.00 | 78 | 1013.1 |
| 20260906000512 | 82 | 57 | 0.0 | 1.7 | 0.00 | 0.00 | 0.00 | 78 | 1013.0 |
| 20260906000013 | 82 | 316 | 0.0 | 0.9 | 0.00 | 0.00 | 0.00 | 77 | 1013.0 |
| 20260905235512 | 83 | 311 | 0.0 | 0.9 | 0.00 | 0.00 | 0.00 | 77 | 1013.0 |
| 20260905235014 | 83 | 71 | 0.0 | 0.9 | 0.00 | 0.00 | 0.00 | 76 | 1012.9 |
| 20260905234513 | 83 | 75 | 0.0 | 0.9 | 0.00 | 0.00 | 0.00 | 75 | 1012.9 |
| 20260905234017 | 84 | 89 | 0.0 | 0.9 | 0.00 | 0.00 | 0.00 | 75 | 1013.0 |
| 20260905233512 | 84 | 109 | 0.0 | 0.9 | 0.00 | 0.00 | 0.00 | 75 | 1012.8 |
| 20260905233013 | 85 | 352 | 0.0 | 0.9 | 0.00 | 0.00 | 0.00 | 75 | 1012.7 |
| 20260905232513 | 85 | 53 | 0.0 | 0.9 | 0.00 | 0.00 | 0.00 | 74 | 1012.6 |
| 20260905232012 | 85 | 72 | 0.0 | 0.0 | 0.00 | 0.00 | 0.00 | 74 | 1012.6 |
| 20260905231010 | 86 | 93 | 0.0 | 0.9 | 0.00 | 0.00 | 0.00 | 74 | 1012.4 |
| 20260905230511 | 86 | 91 | 0.0 | 0.9 | 0.00 | 0.00 | 0.00 | 74 | 1012.5 |
| 20260905230012 | 86 | 60 | 0.0 | 0.9 | 0.00 | 0.00 | 0.00 | 73 | 1012.4 |
| 20260905225511 | 87 | 43 | 0.0 | 1.7 | 0.00 | 0.00 | 0.00 | 73 | 1012.4 |
| 20260905225010 | 87 | 77 | 0.0 | 1.7 | 0.00 | 0.00 | 0.00 | 72 | 1012.5 |
| 20260905224511 | 88 | 19 | 0.0 | 0.0 | 0.00 | 0.00 | 0.00 | 72 | 1012.5 |
| 20260905224010 | 88 | 324 | 0.0 | 0.9 | 0.00 | 0.00 | 0.00 | 71 | 1012.6 |
| 20260905223510 | 89 | 318 | 0.0 | 0.9 | 0.00 | 0.00 | 0.00 | 71 | 1012.5 |
| 20260905223029 | 89 | 327 | 0.0 | 0.9 | 0.00 | 0.00 | 0.00 | 70 | 1012.5 |
| 20260905222510 | 90 | 327 | 0.0 | 0.9 | 0.00 | 0.00 | 0.00 | 69 | 1012.4 |
| 20260905222013 | 91 | 4 | 0.0 | 1.7 | 0.00 | 0.00 | 0.00 | 67 | 1012.5 |
| 20260905221012 | 92 | 25 | 0.0 | 0.9 | 0.00 | 0.00 | 0.00 | 66 | 1012.3 |
| 20260905220510 | 93 | 332 | 0.0 | 0.9 | 0.00 | 0.00 | 0.00 | 66 | 1012.2 |
| 20260905220009 | 93 | 330 | 0.0 | 0.0 | 0.00 | 0.00 | 0.00 | 66 | 1012.2 |
| 20260905215513 | 93 | 340 | 0.0 | 0.0 | 0.00 | 0.00 | 0.00 | 66 | 1012.2 |
| 20260905215009 | 94 | 340 | 0.0 | 0.0 | 0.00 | 0.00 | 0.00 | 64 | 1012.1 |
| 20260905214510 | 95 | 340 | 0.0 | 0.0 | 0.00 | 0.00 | 0.00 | 63 | 1012.1 |
| 20260905214009 | 95 | 340 | 0.0 | 0.0 | 0.00 | 0.00 | 0.00 | 62 | 1012.1 |
| 20260905213508 | 95 | 349 | 0.0 | 0.0 | 0.00 | 0.00 | 0.00 | 63 | 1012.1 |
| 20260905213009 | 95 | 333 | 0.0 | 0.0 | 0.00 | 0.00 | 0.00 | 64 | 1012.1 |
| 20260905212509 | 94 | 333 | 0.0 | 0.9 | 0.00 | 0.00 | 0.00 | 63 | 1012.1 |
| 20260905212010 | 94 | 333 | 0.0 | 0.9 | 0.00 | 0.00 | 0.00 | 62 | 1012.1 |
| 20260905211008 | 95 | 345 | 0.0 | 0.0 | 0.00 | 0.00 | 0.00 | 61 | 1012.0 |
| 20260905210508 | 96 | 345 | 0.0 | 0.0 | 0.00 | 0.00 | 0.00 | 60 | 1012.1 |
| 20260905210008 | 96 | 336 | 0.0 | 0.0 | 0.00 | 0.00 | 0.00 | 61 | 1012.0 |
| 20260905205508 | 96 | 336 | 0.0 | 0.0 | 0.00 | 0.00 | 0.00 | 62 | 1012.0 |
| 20260905205008 | 96 | 336 | 0.0 | 0.0 | 0.00 | 0.00 | 0.00 | 62 | 1012.1 |
| 20260905204511 | 95 | 336 | 0.0 | 0.9 | 0.00 | 0.00 | 0.00 | 64 | 1012.1 |
| 20260905204007 | 94 | 336 | 0.0 | 0.9 | 0.00 | 0.00 | 0.00 | 64 | 1012.2 |
| 20260905203508 | 94 | 338 | 0.0 | 0.0 | 0.00 | 0.00 | 0.00 | 63 | 1012.2 |
| 20260905203008 | 95 | 337 | 0.0 | 0.9 | 0.00 | 0.00 | 0.00 | 62 | 1012.3 |
| 20260905202507 | 95 | 347 | 0.0 | 0.9 | 0.00 | 0.00 | 0.00 | 63 | 1012.4 |
| 20260905202007 | 95 | 347 | 0.0 | 0.0 | 0.00 | 0.00 | 0.00 | 60 | 1012.3 |
| 20260905201007 | 95 | 332 | 0.0 | 0.0 | 0.00 | 0.00 | 0.00 | 62 | 1012.4 |
| 20260905200509 | 95 | 338 | 0.0 | 0.9 | 0.00 | 0.00 | 0.00 | 63 | 1012.5 |
| 20260905200007 | 95 | 337 | 0.0 | 0.0 | 0.00 | 0.00 | 0.00 | 62 | 1012.4 |
| 20260905195510 | 94 | 337 | 0.0 | 0.9 | 0.00 | 0.00 | 0.00 | 66 | 1012.4 |
| 20260905195006 | 94 | 337 | 0.0 | 0.9 | 0.00 | 0.00 | 0.00 | 63 | 1012.4 |
| 20260905194506 | 94 | 335 | 0.0 | 0.9 | 0.00 | 0.00 | 0.00 | 64 | 1012.3 |
| 20260905194006 | 94 | 336 | 0.0 | 0.9 | 0.00 | 0.00 | 0.00 | 65 | 1012.3 |
| 20260905193504 | 94 | 335 | 0.0 | 0.0 | 0.00 | 0.00 | 0.00 | 65 | 1012.5 |
| 20260905193006 | 94 | 336 | 0.0 | 0.0 | 0.00 | 0.00 | 0.00 | 65 | 1012.5 |
| 20260905192505 | 94 | 336 | 0.0 | 0.0 | 0.00 | 0.00 | 0.00 | 63 | 1012.6 |
| 20260905192005 | 94 | 336 | 0.0 | 0.0 | 0.00 | 0.00 | 0.00 | 64 | 1012.6 |
| 20260905191005 | 95 | 338 | 0.0 | 0.0 | 0.00 | 0.00 | 0.00 | 62 | 1012.6 |
| 20260905190506 | 95 | 338 | 0.0 | 0.0 | 0.00 | 0.00 | 0.00 | 64 | 1012.6 |
| 20260905190005 | 94 | 338 | 0.0 | 0.0 | 0.00 | 0.00 | 0.00 | 65 | 1012.6 |
| 20260905185504 | 94 | 338 | 0.0 | 0.9 | 0.00 | 0.00 | 0.00 | 65 | 1012.6 |
| 20260905185004 | 94 | 338 | 0.0 | 0.9 | 0.00 | 0.00 | 0.00 | 64 | 1012.7 |
| 20260905184505 | 94 | 338 | 0.0 | 0.9 | 0.00 | 0.00 | 0.00 | 63 | 1012.9 |
| 20260905184004 | 94 | 338 | 0.0 | 0.9 | 0.00 | 0.00 | 0.00 | 64 | 1012.9 |
| 20260905183504 | 94 | 338 | 0.0 | 0.0 | 0.00 | 0.00 | 0.00 | 64 | 1012.9 |
| 20260905183004 | 95 | 338 | 0.0 | 0.9 | 0.00 | 0.00 | 0.00 | 62 | 1012.9 |
| 20260905182504 | 96 | 338 | 0.0 | 0.9 | 0.00 | 0.00 | 0.00 | 62 | 1012.9 |
| 20260905182004 | 96 | 338 | 0.0 | 0.9 | 0.00 | 0.00 | 0.00 | 61 | 1013.0 |
| 20260905181002 | 96 | 338 | 0.0 | 0.0 | 0.00 | 0.00 | 0.00 | 64 | 1013.0 |
| 20260905180502 | 96 | 338 | 0.0 | 1.7 | 0.00 | 0.00 | 0.00 | 60 | 1013.0 |
| 20260905180002 | 96 | 338 | 0.0 | 1.7 | 0.00 | 0.00 | 0.00 | 62 | 1013.0 |
| 20260905175502 | 96 | 326 | 0.0 | 1.7 | 0.00 | 0.00 | 0.00 | 62 | 1013.0 |
| 20260905175000 | 96 | 320 | 0.0 | 1.7 | 0.00 | 0.00 | 0.00 | 61 | 1013.0 |
| 20260905174500 | 96 | 354 | 0.0 | 0.9 | 0.00 | 0.00 | 0.00 | 60 | 1013.1 |
| 20260905174101 | 96 | 84 | 0.0 | 4.3 | 0.00 | 0.00 | 0.00 | 62 | 1013.1 |
| 20260905173601 | 96 | 86 | 0.0 | 4.3 | 0.00 | 0.00 | 0.00 | 61 | 1013.2 |
| 20260905173059 | 96 | 96 | 0.9 | 3.5 | 0.00 | 0.00 | 0.00 | 61 | 1013.2 |
| 20260905172600 | 96 | 28 | 0.0 | 0.0 | 0.00 | 0.00 | 0.00 | 62 | 1013.2 |
| 20260905172058 | 96 | 28 | 0.0 | 2.6 | 0.00 | 0.00 | 0.00 | 64 | 1013.2 |
| 20260905171657 | 96 | 105 | 0.0 | 1.7 | 0.00 | 0.00 | 0.00 | 64 | 1013.2 |
| 20260905171056 | 95 | 79 | 0.0 | 0.9 | 0.00 | 0.00 | 0.00 | 62 | 1013.3 |
| 20260905170556 | 95 | 27 | 0.0 | 0.9 | 0.00 | 0.00 | 0.00 | 61 | 1013.3 |
| 20260905170059 | 95 | 27 | 0.0 | 0.9 | 0.00 | 0.00 | 0.00 | 62 | 1013.4 |
| 20260905165554 | 95 | 66 | 0.0 | 0.9 | 0.00 | 0.00 | 0.00 | 64 | 1013.4 |
| 20260905165056 | 95 | 93 | 0.0 | 0.9 | 0.00 | 0.00 | 0.00 | 65 | 1013.4 |
| 20260905164552 | 95 | 63 | 0.0 | 0.9 | 0.00 | 0.00 | 0.00 | 64 | 1013.5 |
| 20260905164051 | 94 | 32 | 0.0 | 0.9 | 0.00 | 0.00 | 0.00 | 64 | 1013.5 |
| 20260905163550 | 94 | 346 | 0.0 | 0.9 | 0.00 | 0.00 | 0.00 | 66 | 1013.5 |
| 20260905163048 | 93 | 346 | 0.0 | 0.9 | 0.00 | 0.00 | 0.00 | 66 | 1013.5 |
| 20260905162546 | 93 | 346 | 0.0 | 0.9 | 0.00 | 0.00 | 0.00 | 65 | 1013.5 |
| 20260905162044 | 93 | 25 | 0.0 | 0.9 | 0.00 | 0.00 | 0.00 | 66 | 1013.5 |
| 20260905161644 | 93 | 60 | 0.0 | 0.9 | 0.00 | 0.00 | 0.00 | 68 | 1013.6 |
| 20260905161044 | 92 | 62 | 0.0 | 0.9 | 0.00 | 0.00 | 0.00 | 68 | 1013.6 |
| 20260905160544 | 92 | 63 | 0.0 | 0.9 | 0.00 | 0.00 | 0.00 | 68 | 1013.6 |
| 20260905160047 | 91 | 331 | 0.0 | 0.9 | 0.00 | 0.00 | 0.00 | 69 | 1013.6 |
| 20260905155539 | 91 | 331 | 0.0 | 0.9 | 0.00 | 0.00 | 0.00 | 71 | 1013.5 |
| 20260905155039 | 91 | 330 | 0.0 | 1.7 | 0.00 | 0.00 | 0.00 | 70 | 1013.5 |
| 20260905154551 | 91 | 62 | 0.0 | 1.7 | 0.00 | 0.00 | 0.00 | 69 | 1013.6 |
| 20260905154038 | 91 | 320 | 0.0 | 0.0 | 0.00 | 0.00 | 0.00 | 69 | 1013.5 |
| 20260905153538 | 91 | 320 | 0.0 | 0.0 | 0.00 | 0.00 | 0.00 | 70 | 1013.5 |
| 20260905153036 | 91 | 319 | 0.0 | 0.0 | 0.00 | 0.00 | 0.00 | 69 | 1013.4 |
| 20260905152535 | 90 | 319 | 0.0 | 0.0 | 0.00 | 0.00 | 0.00 | 71 | 1013.3 |
| 20260905152033 | 90 | 319 | 0.0 | 0.0 | 0.00 | 0.00 | 0.00 | 71 | 1013.4 |
| 20260905151632 | 89 | 319 | 0.0 | 0.0 | 0.00 | 0.00 | 0.00 | 72 | 1013.3 |
| 20260905151032 | 88 | 319 | 0.0 | 0.0 | 0.00 | 0.00 | 0.00 | 72 | 1013.3 |
| 20260905150530 | 88 | 319 | 0.0 | 0.0 | 0.00 | 0.00 | 0.00 | 72 | 1013.2 |
| 20260905150029 | 87 | 319 | 0.0 | 0.9 | 0.00 | 0.00 | 0.00 | 74 | 1013.2 |
| 20260905145528 | 87 | 319 | 0.0 | 1.7 | 0.00 | 0.00 | 0.00 | 73 | 1013.2 |
| 20260905145028 | 87 | 319 | 0.0 | 2.6 | 0.00 | 0.00 | 0.00 | 73 | 1013.2 |
| 20260905144538 | 87 | 319 | 0.0 | 2.6 | 0.00 | 0.00 | 0.00 | 71 | 1013.2 |
| 20260905144026 | 87 | 316 | 0.0 | 1.7 | 0.00 | 0.00 | 0.00 | 73 | 1013.1 |
| 20260905143525 | 87 | 316 | 0.0 | 1.7 | 0.00 | 0.00 | 0.00 | 72 | 1013.0 |
| 20260905143025 | 87 | 271 | 0.0 | 3.5 | 0.00 | 0.00 | 0.00 | 74 | 1013.0 |
| 20260905142525 | 86 | 311 | 0.0 | 3.5 | 0.00 | 0.00 | 0.00 | 71 | 1013.0 |
| 20260905142028 | 86 | 263 | 0.0 | 0.9 | 0.00 | 0.00 | 0.00 | 73 | 1012.9 |
| 20260905141624 | 86 | 262 | 0.0 | 0.9 | 0.00 | 0.00 | 0.00 | 73 | 1013.0 |
| 20260905141024 | 86 | 232 | 0.0 | 1.7 | 0.00 | 0.00 | 0.00 | 73 | 1012.9 |
| 20260905140524 | 86 | 323 | 0.0 | 2.6 | 0.00 | 0.00 | 0.00 | 73 | 1012.9 |
| 20260905140030 | 86 | 322 | 0.0 | 2.6 | 0.00 | 0.00 | 0.00 | 73 | 1012.9 |
| 20260905135523 | 86 | 276 | 0.0 | 0.0 | 0.00 | 0.00 | 0.00 | 75 | 1013.0 |
| 20260905135021 | 85 | 276 | 0.0 | 0.9 | 0.00 | 0.00 | 0.00 | 75 | 1012.8 |
| 20260905134521 | 85 | 260 | 0.0 | 0.9 | 0.00 | 0.00 | 0.00 | 75 | 1012.9 |
| 20260905134021 | 85 | 260 | 0.0 | 0.0 | 0.00 | 0.00 | 0.00 | 76 | 1012.9 |
| 20260905133524 | 85 | 260 | 0.0 | 0.0 | 0.00 | 0.00 | 0.00 | 76 | 1012.7 |
| 20260905133020 | 85 | 260 | 0.0 | 0.0 | 0.00 | 0.00 | 0.00 | 76 | 1012.7 |
| 20260905132520 | 85 | 260 | 0.0 | 0.0 | 0.00 | 0.00 | 0.00 | 77 | 1012.8 |
| 20260905132023 | 85 | 260 | 0.0 | 0.0 | 0.00 | 0.00 | 0.00 | 76 | 1012.8 |
| 20260905131621 | 85 | 260 | 0.0 | 0.0 | 0.00 | 0.00 | 0.00 | 77 | 1012.9 |
| 20260905131019 | 85 | 260 | 0.0 | 0.0 | 0.00 | 0.00 | 0.00 | 78 | 1012.9 |
| 20260905130520 | 85 | 260 | 0.0 | 0.0 | 0.00 | 0.00 | 0.00 | 79 | 1012.9 |
| 20260905130018 | 84 | 260 | 0.0 | 0.0 | 0.00 | 0.00 | 0.00 | 81 | 1012.9 |
| 20260905125515 | 83 | 260 | 0.0 | 0.0 | 0.00 | 0.00 | 0.00 | 82 | 1012.7 |
| 20260905125013 | 82 | 260 | 0.0 | 0.0 | 0.00 | 0.00 | 0.00 | 83 | 1012.5 |
| 20260905124512 | 81 | 263 | 0.0 | 0.0 | 0.00 | 0.00 | 0.00 | 84 | 1012.5 |
| 20260905124010 | 80 | 263 | 0.0 | 0.0 | 0.00 | 0.00 | 0.00 | 85 | 1012.5 |
| 20260905123509 | 79 | 263 | 0.0 | 0.0 | 0.00 | 0.00 | 0.00 | 85 | 1012.6 |